�N����,����,�~����,�C��,���x,�C��,����,���ϕ���,�ő�u�ԕ���,�ő厞����,���˗�,�I�_���x,�n�����x
"22/07/01","01:00",0.0,26.2,82.2,1009.0,337.8,2.1,4.8,347.8,0.00,23.0,25.6
"22/07/01","02:00",0.0,25.8,83.1,1008.8,337.9,2.3,4.8,329.5,0.00,22.8,25.3
"22/07/01","03:00",0.0,25.2,83.8,1009.0,330.5,2.5,4.5,332.9,0.00,22.3,25.2
"22/07/01","04:00",0.0,24.6,85.1,1009.7,330.4,2.0,3.7,350.8,0.00,22.0,25.0
"22/07/01","05:00",0.0,24.3,85.8,1010.0,346.2,1.6,4.1,347.9,0.00,21.8,24.7
"22/07/01","06:00",0.0,24.0,87.0,1010.2,340.3,1.7,3.6,349.9,0.00,21.7,24.7
"22/07/01","07:00",0.0,25.7,83.1,1010.4,334.0,1.7,5.2,336.3,0.19,22.7,24.7
"22/07/01","08:00",0.0,28.5,72.2,1009.7,353.5,1.1,3.1,352.8,0.89,23.0,24.6
"22/07/01","09:00",0.0,32.0,62.2,1011.4,124.0,0.8,1.8,345.2,1.76,23.9,25.0
"22/07/01","10:00",0.0,33.5,52.5,1012.6,143.3,1.1,2.8,150.8,2.52,22.5,24.9
"22/07/01","11:00",0.0,34.2,51.3,1012.3,185.8,1.5,3.4,209.0,3.08,22.8,25.4
"22/07/01","12:00",0.0,35.3,47.3,1012.3,240.6,1.2,4.9,233.4,3.43,22.4,25.9
"22/07/01","13:00",0.0,37.0,46.5,1011.6,137.1,1.1,4.1,116.3,3.55,23.7,26.4
"22/07/01","14:00",0.0,38.0,42.1,1011.6,354.0,1.0,3.9,336.0,3.41,22.9,26.6
"22/07/01","15:00",0.0,37.0,43.5,1010.9,42.7,0.8,3.4,196.7,2.62,22.6,27.0
"22/07/01","16:00",0.0,38.5,41.8,1010.2,8.7,1.0,2.9,345.3,1.89,23.3,27.2
"22/07/01","17:00",0.0,36.1,45.4,1009.3,141.3,0.8,3.5,218.0,1.70,22.5,27.3
"22/07/01","18:00",0.0,35.9,43.6,1009.0,107.3,1.0,3.2,113.0,0.47,21.6,27.5
"22/07/01","19:00",0.0,35.0,38.2,1009.0,1.6,1.1,2.4,95.6,0.13,18.7,27.4
"22/07/01","20:00",0.0,30.8,50.1,1007.1,327.8,0.7,1.9,1.2,0.00,19.3,27.2
"22/07/01","21:00",0.0,29.0,56.4,1007.6,312.8,1.8,2.9,333.5,0.00,19.5,26.8
"22/07/01","22:00",0.0,27.2,64.5,1008.8,327.0,1.0,3.1,302.2,0.00,20.0,26.5
"22/07/01","23:00",0.0,27.2,65.6,1008.8,339.7,1.0,2.8,341.7,0.00,20.2,26.2
"22/07/01","24:00",0.0,26.0,69.8,1009.3,314.6,1.0,1.7,334.3,0.00,20.1,25.9
"22/07/02","01:00",0.0,25.3,74.3,1009.3,296.0,0.8,2.1,306.5,0.00,20.4,25.7
"22/07/02","02:00",0.0,24.9,76.8,1008.8,304.9,1.0,2.1,327.9,0.00,20.6,25.5
"22/07/02","03:00",0.0,24.5,79.6,1008.8,300.7,1.1,2.7,313.6,0.00,20.8,25.4
"22/07/02","04:00",0.0,23.8,82.4,1009.0,322.8,1.0,2.1,330.4,0.00,20.7,25.3
"22/07/02","05:00",0.0,23.4,83.4,1009.5,291.4,1.0,2.7,312.7,0.00,20.5,25.0
"22/07/02","06:00",0.0,23.5,85.3,1009.5,298.9,1.2,2.8,326.2,0.00,20.9,24.7
"22/07/02","07:00",0.0,26.0,80.7,1010.0,341.7,1.1,3.6,343.6,0.21,22.5,24.6
"22/07/02","08:00",0.0,29.6,71.1,1010.0,74.9,0.5,1.9,250.2,0.91,23.8,24.5
"22/07/02","09:00",0.0,31.1,62.4,1010.7,359.3,1.0,2.1,147.1,1.77,23.1,24.9
"22/07/02","10:00",0.0,33.2,56.2,1011.4,213.6,0.5,2.6,5.5,2.51,23.3,25.2
"22/07/02","11:00",0.0,34.8,49.5,1010.9,135.8,0.8,2.8,234.9,3.06,22.7,25.3
"22/07/02","12:00",0.0,35.7,44.4,1010.7,211.6,1.8,4.1,183.6,3.42,21.7,25.8
"22/07/02","13:00",0.0,36.6,44.6,1010.0,271.5,1.5,5.8,228.0,3.52,22.6,26.2
"22/07/02","14:00",0.0,37.1,45.2,1009.7,146.5,1.8,5.0,209.2,3.42,23.3,26.5
"22/07/02","15:00",0.0,38.0,38.6,1008.8,233.0,1.3,5.2,203.6,3.10,21.5,26.9
"22/07/02","16:00",0.0,37.8,38.7,1008.1,293.0,1.3,4.4,343.4,2.44,21.4,27.1
"22/07/02","17:00",0.0,36.6,44.1,1007.8,208.6,2.1,4.9,204.8,1.77,22.4,27.5
"22/07/02","18:00",0.0,33.9,53.8,1007.1,244.7,1.8,5.5,221.0,0.48,23.3,27.4
"22/07/02","19:00",0.0,32.3,59.1,1006.9,248.2,1.6,6.7,241.6,0.13,23.3,27.4
"22/07/02","20:00",0.0,30.4,65.2,1006.2,268.3,1.3,6.7,238.7,0.01,23.2,27.1
"22/07/02","21:00",0.0,29.6,68.8,1006.7,304.1,1.8,4.3,246.1,0.00,23.3,26.8
"22/07/02","22:00",0.0,29.2,70.7,1007.6,311.0,1.6,4.1,242.1,0.00,23.4,26.6
"22/07/02","23:00",0.0,28.7,71.9,1007.1,277.6,1.1,4.1,348.9,0.00,23.2,26.4
"22/07/02","24:00",0.0,28.3,73.5,1007.1,276.2,0.7,3.5,330.3,0.00,23.1,26.4
"22/07/03","01:00",0.0,27.5,78.4,1006.9,331.8,1.1,2.2,339.7,0.00,23.4,26.2
"22/07/03","02:00",0.0,27.6,78.6,1006.9,340.6,1.0,1.8,343.2,0.00,23.6,25.9
"22/07/03","03:00",0.0,27.4,80.4,1006.7,347.5,1.1,1.8,343.3,0.00,23.8,26.0
"22/07/03","04:00",0.0,26.9,81.8,1006.7,338.2,1.3,2.6,324.4,0.00,23.6,25.7
"22/07/03","05:00",0.0,26.6,83.8,1007.1,332.6,1.1,1.7,351.2,0.00,23.7,25.5
"22/07/03","06:00",0.0,26.4,85.2,1007.6,317.5,1.1,2.0,342.0,0.00,23.8,25.7
"22/07/03","07:00",1.8,26.5,87.0,1007.4,14.7,0.5,1.9,312.5,0.00,24.2,25.6
"22/07/03","08:00",0.2,26.3,89.2,1007.6,303.6,0.5,1.9,5.0,0.34,24.4,25.5
"22/07/03","09:00",2.6,26.1,90.0,1007.8,3.3,0.6,1.3,3.9,0.24,24.4,25.5
"22/07/03","10:00",1.2,25.0,90.7,1007.8,161.3,1.7,3.4,130.0,0.39,23.4,25.6
"22/07/03","11:00",1.4,24.8,91.3,1007.4,269.0,0.3,1.6,134.1,0.01,23.3,25.5
"22/07/03","12:00",11.2,24.6,92.4,1007.4,347.8,1.0,1.8,353.2,0.02,23.3,25.6
"22/07/03","13:00",11.8,24.4,93.4,1006.7,249.3,0.8,3.1,355.8,0.15,23.3,25.2
"22/07/03","14:00",1.6,24.7,93.9,1006.0,346.5,0.8,2.1,341.0,0.24,23.7,25.2
"22/07/03","15:00",0.0,25.2,93.4,1005.7,222.0,0.8,2.1,240.8,0.42,24.1,25.2
"22/07/03","16:00",0.2,25.9,93.0,1005.7,306.6,0.6,1.7,169.1,0.35,24.7,25.2
"22/07/03","17:00",0.0,26.5,90.1,1006.0,353.0,0.6,2.2,347.6,0.68,24.8,25.2
"22/07/03","18:00",0.0,26.5,88.8,1005.0,319.5,1.0,2.2,343.3,0.11,24.5,25.3
"22/07/03","19:00",0.0,26.2,89.7,1005.7,291.3,0.7,2.1,329.7,0.10,24.4,25.4
"22/07/03","20:00",0.2,25.4,91.4,1005.7,310.4,0.8,2.0,264.1,0.00,23.9,25.3
"22/07/03","21:00",0.6,24.9,92.7,1005.5,323.4,0.6,1.9,349.7,0.00,23.7,25.3
"22/07/03","22:00",0.2,24.7,93.5,1006.2,340.9,0.7,1.3,345.9,0.00,23.6,25.4
"22/07/03","23:00",0.2,24.4,94.2,1006.2,326.0,1.0,1.8,326.0,0.00,23.4,25.0
"22/07/03","24:00",0.0,24.2,94.6,1006.0,277.2,0.6,1.6,342.9,0.00,23.3,25.2
"22/07/04","01:00",0.0,24.2,94.9,1005.7,300.2,0.6,1.2,302.8,0.00,23.4,25.1
"22/07/04","02:00",0.0,24.1,95.2,1006.0,306.6,0.6,1.2,306.0,0.00,23.3,25.1
"22/07/04","03:00",0.0,24.1,95.4,1005.2,305.8,0.6,1.0,325.9,0.00,23.4,25.0
"22/07/04","04:00",0.0,24.2,95.5,1005.2,329.5,0.8,1.2,342.5,0.00,23.5,24.8
"22/07/04","05:00",0.2,24.2,95.6,1005.0,339.3,0.3,1.2,341.1,0.00,23.5,25.0
"22/07/04","06:00",0.0,24.4,95.8,1005.0,325.7,0.5,1.1,341.5,0.00,23.7,24.7
"22/07/04","07:00",0.2,24.5,95.9,1005.2,313.6,0.2,0.9,346.1,0.04,23.8,24.7
"22/07/04","08:00",0.0,25.0,95.9,1005.0,311.2,0.2,1.1,324.0,0.22,24.3,24.7
"22/07/04","09:00",0.4,25.3,95.7,1004.8,231.1,0.8,1.4,224.1,0.29,24.6,24.5
"22/07/04","10:00",0.6,25.8,95.4,1005.2,180.4,0.8,2.6,192.4,0.40,25.0,24.8
"22/07/04","11:00",0.8,25.6,95.1,1005.0,215.2,0.5,1.7,127.0,0.37,24.8,24.8
"22/07/04","12:00",1.0,25.7,94.8,1005.2,208.4,0.7,1.8,213.2,0.25,24.8,25.0
"22/07/04","13:00",0.6,26.0,94.5,1004.8,107.6,0.3,1.4,127.6,0.34,25.1,25.1
"22/07/04","14:00",0.6,25.8,94.0,1004.5,168.2,1.0,2.1,188.8,0.31,24.8,25.0
"22/07/04","15:00",0.2,26.7,92.6,1003.6,142.4,0.6,2.1,157.2,0.73,25.4,25.1
"22/07/04","16:00",0.0,27.6,83.2,1003.4,194.9,0.6,2.9,204.7,0.96,24.5,25.3
"22/07/04","17:00",0.0,27.4,82.5,1003.6,235.6,0.6,1.6,126.6,0.41,24.2,25.4
"22/07/04","18:00",0.0,26.8,86.8,1003.4,328.8,1.2,2.4,341.5,0.22,24.5,25.3
"22/07/04","19:00",0.0,26.1,87.7,1003.4,332.8,0.8,1.8,342.7,0.05,23.9,25.3
"22/07/04","20:00",0.0,25.8,88.7,1003.8,322.1,1.1,1.7,344.8,0.00,23.8,25.1
"22/07/04","21:00",0.0,25.0,90.8,1004.1,301.1,0.6,1.8,333.3,0.00,23.4,25.0
"22/07/04","22:00",0.0,24.6,92.2,1004.3,322.7,1.0,1.7,337.0,0.00,23.3,25.1
"22/07/04","23:00",0.0,24.3,92.9,1004.5,292.5,0.8,1.6,318.7,0.00,23.1,25.0
"22/07/04","24:00",0.0,24.2,93.2,1004.8,316.5,1.0,1.9,315.7,0.00,23.1,25.0
"22/07/05","01:00",0.0,24.0,93.5,1004.1,326.2,0.7,1.6,351.3,0.00,22.9,25.1
"22/07/05","02:00",0.2,23.8,93.8,1003.6,283.6,0.6,1.8,336.3,0.00,22.8,24.8
"22/07/05","03:00",0.0,23.7,94.3,1003.1,329.5,0.6,1.2,335.8,0.00,22.8,24.7
"22/07/05","04:00",0.2,23.4,94.6,1003.1,310.7,0.3,1.1,335.6,0.00,22.5,24.7
"22/07/05","05:00",0.0,23.4,94.9,1002.9,315.1,0.6,1.1,343.8,0.00,22.6,24.7
"22/07/05","06:00",0.0,23.4,95.1,1002.6,294.7,0.2,1.0,343.4,0.00,22.6,24.4
"22/07/05","07:00",0.0,23.8,95.4,1002.6,326.8,0.8,1.3,354.4,0.01,23.1,24.8
"22/07/05","08:00",0.0,24.6,95.4,1002.6,293.7,0.8,1.3,331.6,0.20,23.9,24.5
"22/07/05","09:00",0.0,25.3,94.7,1002.2,337.2,0.5,1.7,122.9,0.26,24.4,24.6
"22/07/05","10:00",0.2,26.5,93.2,1001.2,55.2,0.6,1.7,352.4,0.66,25.4,24.7
"22/07/05","11:00",0.0,26.9,85.0,1000.8,178.0,1.2,2.8,202.3,0.69,24.2,24.4
"22/07/05","12:00",0.8,26.6,88.7,1000.0,354.7,0.7,3.7,226.3,0.64,24.6,24.7
"22/07/05","13:00",0.0,27.9,86.8,999.3,327.8,1.1,2.2,343.5,1.27,25.5,24.9
"22/07/05","14:00",0.0,28.2,83.5,998.6,348.4,1.3,2.6,352.9,1.29,25.2,25.0
"22/07/05","15:00",0.0,30.7,73.1,999.1,24.8,0.8,2.7,353.0,2.14,25.4,25.3
"22/07/05","16:00",0.0,30.3,73.4,998.2,0.1,1.2,2.8,14.2,1.13,25.0,25.5
"22/07/05","17:00",5.8,25.9,88.5,998.2,135.9,1.3,5.2,143.7,0.20,23.9,25.6
"22/07/05","18:00",1.0,25.2,91.5,998.2,9.0,0.3,3.7,128.0,0.00,23.8,25.5
"22/07/05","19:00",0.4,25.1,92.7,999.1,13.7,0.3,1.4,314.0,0.00,23.9,25.6
"22/07/05","20:00",0.2,24.7,93.5,999.6,142.2,0.3,1.8,210.7,0.00,23.6,25.5
"22/07/05","21:00",0.2,24.6,94.0,999.8,276.9,0.7,1.6,265.1,0.00,23.6,25.3
"22/07/05","22:00",0.0,24.4,94.6,1000.0,317.9,0.7,2.1,349.7,0.00,23.5,25.2
"22/07/05","23:00",0.0,24.1,95.0,1000.3,284.1,0.6,1.4,292.1,0.00,23.3,25.2
"22/07/05","24:00",0.0,24.0,95.3,1000.3,268.0,0.3,1.2,343.5,0.00,23.2,25.2
"22/07/06","01:00",0.0,23.7,95.6,999.8,323.2,0.6,1.6,347.2,0.00,23.0,25.1
"22/07/06","02:00",0.2,23.4,95.9,1000.0,345.0,1.2,2.6,310.6,0.00,22.7,25.0
"22/07/06","03:00",0.0,23.4,96.0,1000.0,328.4,1.8,2.9,338.7,0.00,22.8,24.7
"22/07/06","04:00",0.0,23.5,96.0,1000.0,332.9,1.7,3.1,358.1,0.00,22.9,24.8
"22/07/06","05:00",0.0,23.4,96.1,1000.8,349.0,1.2,4.1,324.5,0.00,22.8,24.7
"22/07/06","06:00",0.0,24.0,96.0,1001.0,335.7,1.6,4.2,339.4,0.00,23.4,24.4
"22/07/06","07:00",0.0,24.5,96.0,1001.0,342.2,1.1,3.5,330.6,0.08,23.9,24.7
"22/07/06","08:00",0.0,25.6,95.2,1001.2,127.9,0.5,1.7,137.4,0.43,24.8,24.6
"22/07/06","09:00",0.0,27.6,90.1,1000.3,37.5,0.6,1.9,0.3,1.15,25.9,24.8
"22/07/06","10:00",0.0,28.8,79.7,1000.8,330.7,1.7,4.1,348.2,1.16,25.0,24.8
"22/07/06","11:00",0.0,29.9,74.4,1001.2,306.4,1.3,3.1,316.0,1.65,24.9,24.9
"22/07/06","12:00",0.0,31.3,67.4,1002.2,327.5,1.2,4.5,341.4,1.83,24.6,25.1
"22/07/06","13:00",0.0,31.0,65.0,1001.7,313.8,1.3,5.9,21.7,2.58,23.7,25.3
"22/07/06","14:00",0.0,32.0,62.3,1001.7,318.8,1.6,5.2,313.6,2.07,23.9,25.5
"22/07/06","15:00",0.0,31.9,60.0,1001.2,343.7,2.3,6.2,336.1,1.82,23.2,25.7
"22/07/06","16:00",0.0,32.4,58.2,1000.8,351.8,2.7,8.6,349.9,2.11,23.2,25.8
"22/07/06","17:00",0.0,31.8,58.9,1000.8,344.9,2.6,7.7,346.5,1.78,22.8,26.1
"22/07/06","18:00",0.0,30.6,61.7,1000.5,355.1,1.7,7.1,340.9,0.31,22.4,26.1
"22/07/06","19:00",0.0,29.0,67.7,1000.3,346.7,1.8,5.1,15.2,0.05,22.5,26.0
"22/07/06","20:00",0.0,26.9,73.8,1001.7,343.3,0.8,3.2,354.8,0.00,21.9,25.9
"22/07/06","21:00",0.0,25.6,79.8,1002.4,324.2,1.7,3.1,324.7,0.00,21.9,25.7
"22/07/06","22:00",0.0,24.7,83.8,1003.1,308.2,0.5,2.8,340.6,0.00,21.8,25.4
"22/07/06","23:00",0.0,24.4,86.3,1003.8,326.9,1.8,3.6,326.8,0.00,22.0,25.5
"22/07/06","24:00",0.0,24.4,85.7,1003.6,340.1,1.8,3.9,346.8,0.00,21.9,25.3
"22/07/07","01:00",0.0,24.5,85.4,1003.6,336.5,1.7,4.2,350.4,0.00,21.9,25.1
"22/07/07","02:00",0.0,24.0,87.4,1003.4,340.9,2.3,3.9,349.1,0.00,21.8,24.9
"22/07/07","03:00",0.0,23.9,88.2,1003.4,343.5,2.1,4.7,345.3,0.00,21.9,24.7
"22/07/07","04:00",0.0,23.7,89.1,1003.1,339.0,2.5,4.9,345.1,0.00,21.8,24.8
"22/07/07","05:00",0.0,23.6,89.6,1003.8,331.5,2.5,4.1,336.8,0.00,21.8,24.7
"22/07/07","06:00",0.0,23.6,90.4,1004.5,331.8,1.8,3.9,345.0,0.00,22.0,24.5
"22/07/07","07:00",0.0,25.1,88.2,1004.8,335.3,1.8,4.4,340.7,0.20,23.0,24.4
"22/07/07","08:00",0.0,27.3,79.7,1004.1,311.0,1.1,4.8,356.8,0.89,23.5,24.5
"22/07/07","09:00",0.0,28.0,72.5,1003.4,354.9,1.1,3.7,344.1,0.95,22.6,24.4
"22/07/07","10:00",0.0,29.9,65.3,1004.8,354.6,1.6,3.6,344.9,2.05,22.7,24.3
"22/07/07","11:00",0.0,30.6,60.8,1004.8,339.8,1.6,4.3,349.3,2.88,22.2,24.9
"22/07/07","12:00",0.0,32.4,54.6,1004.5,12.7,1.3,4.5,344.1,2.94,22.1,25.1
"22/07/07","13:00",0.0,33.0,52.9,1004.1,341.1,1.2,3.4,334.9,3.24,22.2,25.1
"22/07/07","14:00",0.0,34.2,46.2,1003.8,17.8,1.6,4.5,350.8,3.51,21.0,25.6
"22/07/07","15:00",0.0,34.1,47.7,1002.6,336.5,1.5,4.4,329.9,3.12,21.5,25.7
"22/07/07","16:00",0.0,33.7,46.0,1002.2,341.8,2.6,4.9,359.7,2.68,20.5,26.1
"22/07/07","17:00",0.0,33.1,48.5,1002.2,352.5,2.1,5.9,350.2,1.79,20.8,26.2
"22/07/07","18:00",0.0,32.0,51.7,1001.5,349.7,2.6,5.4,353.7,0.48,20.9,26.5
"22/07/07","19:00",0.0,30.5,57.4,1000.8,343.9,2.5,4.8,359.5,0.07,21.2,26.0
"22/07/07","20:00",0.0,27.6,66.7,1001.0,334.4,1.5,4.2,342.5,0.01,20.9,26.1
"22/07/07","21:00",0.0,25.6,75.6,1001.9,311.6,1.2,3.5,332.4,0.00,21.0,25.8
"22/07/07","22:00",0.0,24.5,78.8,1002.9,316.2,1.0,3.2,329.6,0.00,20.6,25.7
"22/07/07","23:00",0.0,23.8,81.9,1003.1,311.8,1.3,2.7,335.6,0.00,20.6,25.4
"22/07/07","24:00",0.0,23.5,83.3,1003.4,329.7,1.5,2.6,330.8,0.00,20.5,25.2
"22/07/08","01:00",0.0,22.9,85.5,1003.1,296.0,0.8,2.5,306.8,0.00,20.4,25.3
"22/07/08","02:00",0.0,22.4,87.0,1002.9,315.7,1.0,2.9,337.7,0.00,20.2,24.9
"22/07/08","03:00",0.0,22.3,88.1,1002.2,304.8,1.1,2.8,334.2,0.00,20.3,24.8
"22/07/08","04:00",0.0,21.9,89.6,1002.2,326.2,1.2,1.7,330.8,0.00,20.2,24.6
"22/07/08","05:00",0.0,21.9,90.7,1002.2,301.8,1.5,2.4,334.2,0.00,20.4,24.6
"22/07/08","06:00",0.0,22.2,91.1,1002.2,291.2,1.2,2.2,316.6,0.00,20.7,24.3
"22/07/08","07:00",0.0,23.7,89.9,1002.6,319.8,1.1,2.0,337.2,0.22,22.0,24.4
"22/07/08","08:00",0.0,25.7,86.1,1002.2,163.6,0.3,2.0,341.8,0.50,23.2,24.3
"22/07/08","09:00",0.0,27.0,79.8,1001.0,196.1,0.7,1.9,236.6,0.66,23.3,24.2
"22/07/08","10:00",0.0,27.9,76.2,1001.7,205.7,1.2,3.2,199.3,0.81,23.4,24.3
"22/07/08","11:00",0.0,28.8,75.5,1001.7,178.2,1.1,3.4,202.5,1.32,24.1,24.4
"22/07/08","12:00",0.0,30.7,71.8,1001.5,142.6,1.0,3.2,141.7,2.15,25.1,24.9
"22/07/08","13:00",0.0,31.9,66.8,1001.5,140.1,0.8,2.9,191.3,2.22,25.0,25.0
"22/07/08","14:00",0.0,32.9,65.4,1000.5,158.6,1.3,3.9,205.8,2.39,25.6,25.5
"22/07/08","15:00",0.0,31.8,65.4,999.6,163.2,1.1,4.7,232.9,1.70,24.5,25.7
"22/07/08","16:00",0.0,30.4,69.6,998.2,2.4,1.3,3.7,123.2,0.66,24.3,25.7
"22/07/08","17:00",0.4,25.5,85.7,997.4,323.6,2.1,6.2,338.9,0.16,23.0,25.9
"22/07/08","18:00",0.4,25.3,88.2,997.9,336.8,1.5,7.5,336.9,0.06,23.2,25.7
"22/07/08","19:00",1.4,25.4,90.7,998.2,328.3,1.3,3.4,350.1,0.10,23.8,25.6
"22/07/08","20:00",0.0,25.0,91.6,998.4,318.8,2.0,3.9,334.9,0.02,23.6,25.3
"22/07/08","21:00",0.0,24.8,92.4,999.1,332.5,2.0,3.3,320.5,0.00,23.5,25.4
"22/07/08","22:00",0.0,24.4,93.0,998.6,326.1,1.7,3.5,323.3,0.00,23.2,25.1
"22/07/08","23:00",0.0,24.2,93.5,998.2,341.5,2.0,3.6,336.1,0.00,23.1,25.3
"22/07/08","24:00",0.0,24.1,93.8,997.9,300.0,1.1,2.4,305.8,0.00,23.1,24.8
"22/07/09","01:00",0.0,24.2,94.1,997.2,307.4,1.1,1.9,334.6,0.00,23.2,24.8
"22/07/09","02:00",0.0,24.1,94.3,996.7,308.3,1.3,2.1,316.2,0.00,23.2,24.8
"22/07/09","03:00",0.0,24.3,94.4,997.0,317.2,0.3,2.4,324.8,0.00,23.4,24.7
"22/07/09","04:00",0.0,23.9,94.6,996.7,315.8,1.2,2.1,339.2,0.00,23.0,24.8
"22/07/09","05:00",0.0,23.9,94.8,996.5,304.3,1.0,1.7,348.0,0.00,23.1,24.7
"22/07/09","06:00",0.0,24.0,95.0,996.3,328.7,1.0,1.7,340.3,0.00,23.2,24.6
"22/07/09","07:00",0.0,24.8,95.0,996.5,276.8,0.3,1.6,321.3,0.08,24.0,24.6
"22/07/09","08:00",0.0,26.1,93.5,996.7,2.2,0.5,2.4,333.9,0.65,25.0,24.5
"22/07/09","09:00",0.0,27.6,87.4,995.1,353.4,0.6,1.7,325.3,0.78,25.4,24.6
"22/07/09","10:00",0.0,31.1,74.9,996.7,198.3,0.8,2.2,114.7,1.83,26.2,24.6
"22/07/09","11:00",0.0,30.1,72.5,996.5,217.0,1.1,3.7,124.6,1.93,24.6,25.1
"22/07/09","12:00",0.2,32.9,64.0,996.3,186.6,1.6,4.9,220.1,2.40,25.2,25.3
"22/07/09","13:00",0.0,33.1,57.7,996.0,231.3,2.8,7.0,227.4,2.56,23.7,25.5
"22/07/09","14:00",0.0,31.7,63.2,995.1,266.0,1.2,4.7,241.6,1.79,23.9,25.8
"22/07/09","15:00",0.0,28.1,76.8,993.7,106.7,1.2,4.4,140.8,0.57,23.7,25.8
"22/07/09","16:00",16.8,26.8,88.3,994.4,2.2,0.8,3.3,7.2,0.72,24.7,25.7
"22/07/09","17:00",0.0,28.2,82.0,994.6,11.8,0.7,2.2,108.6,1.29,24.9,25.6
"22/07/09","18:00",0.0,26.6,82.8,994.6,194.7,1.7,5.5,206.6,0.37,23.5,25.6
"22/07/09","19:00",0.0,25.8,81.0,995.6,277.6,0.8,4.0,190.4,0.00,22.3,25.8
"22/07/09","20:00",4.6,24.7,88.5,996.5,318.4,0.6,3.1,350.6,0.00,22.7,25.5
"22/07/09","21:00",5.4,24.0,91.8,996.7,274.5,0.6,2.0,335.4,0.00,22.6,25.6
"22/07/09","22:00",7.6,23.8,93.2,997.7,262.5,0.6,2.5,339.1,0.00,22.7,25.1
"22/07/09","23:00",0.6,23.9,94.1,997.7,329.8,0.6,2.0,312.0,0.00,22.9,25.1
"22/07/09","24:00",0.0,24.0,94.5,997.7,302.0,0.7,1.2,339.8,0.00,23.1,24.9
"22/07/10","01:00",0.0,23.9,94.9,997.7,328.7,0.7,1.4,339.8,0.00,23.1,25.0
"22/07/10","02:00",0.0,23.7,95.3,997.7,260.4,0.2,1.4,344.8,0.00,22.9,24.9
"22/07/10","03:00",0.0,23.8,95.6,997.7,327.7,0.7,1.2,321.5,0.00,23.1,24.9
"22/07/10","04:00",0.0,23.7,95.8,997.9,322.1,0.3,1.3,338.6,0.00,23.0,24.8
"22/07/10","05:00",0.2,23.8,95.9,998.2,289.2,0.3,1.1,332.1,0.00,23.1,24.8
"22/07/10","06:00",0.0,23.9,96.1,998.6,307.3,0.7,1.1,328.8,0.00,23.3,24.7
"22/07/10","07:00",0.0,24.2,96.2,998.9,230.7,0.1,1.1,343.7,0.00,23.6,24.8
"22/07/10","08:00",0.0,24.7,96.3,999.1,332.5,0.8,1.4,336.5,0.13,24.1,24.9
"22/07/10","09:00",0.0,24.6,96.3,999.6,345.1,0.8,1.7,343.9,0.18,24.0,24.7
"22/07/10","10:00",0.0,25.8,96.0,999.3,7.6,0.6,2.0,346.0,0.47,25.2,24.8
"22/07/10","11:00",0.0,27.5,92.5,999.3,164.7,0.8,3.1,204.2,1.64,26.2,25.0
"22/07/10","12:00",0.0,30.6,76.1,1000.5,141.8,0.7,3.1,210.3,2.39,25.9,25.1
"22/07/10","13:00",0.0,30.7,69.7,1000.0,159.3,1.0,2.7,98.5,1.42,24.6,25.3
"22/07/10","14:00",0.0,31.1,69.9,999.8,227.0,0.6,2.8,355.8,1.12,25.0,25.6
"22/07/10","15:00",0.0,30.3,72.7,999.3,115.8,1.2,3.2,120.6,1.47,24.9,25.5
"22/07/10","16:00",0.0,29.7,74.4,999.1,85.4,1.1,3.2,14.9,0.75,24.7,25.9
"22/07/10","17:00",0.0,31.2,70.7,1000.0,110.7,0.8,2.4,86.3,1.19,25.3,25.8
"22/07/10","18:00",0.0,28.9,75.8,998.6,26.3,0.6,2.9,347.0,0.46,24.2,26.0
"22/07/10","19:00",0.0,28.1,77.7,998.4,350.4,0.7,2.8,0.8,0.12,23.9,25.9
"22/07/10","20:00",0.0,27.3,82.6,999.3,330.0,1.0,2.2,352.9,0.00,24.1,25.8
"22/07/10","21:00",0.0,26.3,86.5,1000.0,305.1,1.0,1.8,330.6,0.00,23.9,25.7
"22/07/10","22:00",0.0,25.8,88.2,1001.2,304.5,0.7,2.0,340.2,0.00,23.7,25.8
"22/07/10","23:00",0.0,25.4,89.0,1001.0,301.7,0.7,1.7,331.5,0.00,23.5,25.6
"22/07/10","24:00",0.0,25.0,90.2,1001.0,342.5,1.0,1.7,328.7,0.00,23.3,25.3
"22/07/11","01:00",0.0,24.4,91.3,1001.0,310.9,1.1,1.8,318.9,0.00,22.9,25.4
"22/07/11","02:00",0.0,24.2,91.9,1001.0,272.5,0.5,1.9,317.0,0.00,22.8,25.4
"22/07/11","03:00",0.0,24.0,92.3,1001.2,333.7,1.0,2.0,318.0,0.00,22.7,25.2
"22/07/11","04:00",0.0,23.9,92.8,1001.2,308.1,1.0,1.7,312.3,0.00,22.7,25.1
"22/07/11","05:00",0.0,24.2,93.0,1001.0,336.1,0.8,1.4,335.9,0.00,23.0,25.1
"22/07/11","06:00",0.0,24.4,93.2,1001.5,337.4,0.8,1.4,308.0,0.00,23.3,25.0
"22/07/11","07:00",0.0,25.0,93.0,1001.9,283.4,0.8,1.7,309.6,0.07,23.8,24.8
"22/07/11","08:00",0.0,26.6,90.0,1001.7,250.5,0.6,1.8,318.5,0.47,24.9,24.9
"22/07/11","09:00",0.0,29.1,77.4,1001.7,21.3,0.6,1.8,127.0,1.10,24.8,24.9
"22/07/11","10:00",0.0,30.7,70.3,1003.1,170.8,1.2,2.6,129.6,2.26,24.7,25.2
"22/07/11","11:00",0.0,31.7,69.2,1002.9,133.3,0.8,3.3,206.1,2.01,25.4,25.5
"22/07/11","12:00",0.0,32.1,65.2,1002.6,182.3,1.7,4.2,237.1,3.18,24.8,25.6
"22/07/11","13:00",0.0,31.6,68.1,1001.9,312.3,1.1,7.3,198.0,1.76,25.0,25.9
"22/07/11","14:00",0.0,32.6,64.1,1001.9,341.9,1.8,3.9,336.1,2.58,25.0,26.0
"22/07/11","15:00",0.0,32.2,63.9,1001.7,311.0,1.6,6.0,340.5,1.60,24.5,26.2
"22/07/11","16:00",0.0,33.4,61.7,1001.9,337.2,0.7,3.9,235.9,1.83,25.1,26.4
"22/07/11","17:00",0.0,32.7,61.2,1001.5,340.8,1.2,3.5,350.7,1.28,24.3,26.5
"22/07/11","18:00",0.0,32.4,64.2,1000.5,206.8,1.2,2.9,225.8,0.61,24.8,26.6
"22/07/11","19:00",0.0,30.4,68.5,999.3,325.9,0.8,3.4,230.2,0.17,24.0,26.5
"22/07/11","20:00",0.0,29.0,75.4,999.3,3.1,0.8,2.4,323.4,0.01,24.2,26.5
"22/07/11","21:00",0.0,27.1,83.1,1000.0,299.3,0.8,2.0,330.3,0.00,24.0,26.6
"22/07/11","22:00",0.0,26.7,84.3,1001.0,320.7,0.8,2.6,307.4,0.00,23.9,26.5
"22/07/11","23:00",0.0,26.3,84.1,1001.5,329.8,1.5,2.8,341.7,0.00,23.4,26.2
"22/07/11","24:00",0.0,26.5,81.6,1001.7,306.3,1.3,3.2,336.7,0.00,23.1,26.0
"22/07/12","01:00",0.0,26.2,82.1,1001.0,336.7,1.2,2.4,332.9,0.00,22.9,25.9
"22/07/12","02:00",0.0,25.8,83.7,1001.0,327.4,1.7,3.7,320.7,0.00,22.9,25.9
"22/07/12","03:00",0.0,25.5,85.3,1000.8,307.9,1.2,2.2,345.9,0.00,22.9,25.7
"22/07/12","04:00",3.4,24.3,89.5,1001.2,330.6,0.8,2.9,341.0,0.00,22.5,25.5
"22/07/12","05:00",5.4,23.9,91.8,1001.0,41.6,0.2,2.0,330.3,0.00,22.5,25.4
"22/07/12","06:00",4.2,23.7,93.1,1001.9,312.7,0.5,1.8,339.4,0.00,22.6,25.3
"22/07/12","07:00",6.8,23.5,94.0,1002.2,339.8,0.7,2.4,341.4,0.00,22.5,25.1
"22/07/12","08:00",0.0,24.1,94.6,1001.9,282.9,0.3,1.3,341.8,0.15,23.2,25.0
"22/07/12","09:00",0.0,24.9,93.9,1001.0,326.1,0.8,2.2,341.2,0.82,23.9,24.8
"22/07/12","10:00",0.0,25.3,92.5,1001.2,290.1,0.8,1.8,345.2,0.44,24.0,25.1
"22/07/12","11:00",0.0,25.4,91.4,1001.2,188.1,1.0,2.1,130.8,0.23,23.9,25.2
"22/07/12","12:00",0.0,25.2,91.6,1000.8,158.6,0.6,2.0,111.8,0.41,23.8,25.4
"22/07/12","13:00",0.0,25.8,91.4,1000.3,327.9,1.1,2.4,339.2,0.32,24.3,25.2
"22/07/12","14:00",0.0,26.9,87.7,999.8,334.6,0.6,1.9,339.4,0.72,24.7,25.3
"22/07/12","15:00",0.0,28.9,83.2,999.1,25.7,0.5,1.7,344.4,0.95,25.8,25.4
"22/07/12","16:00",0.0,29.5,75.7,999.3,232.8,1.6,3.9,236.2,1.47,24.8,25.5
"22/07/12","17:00",0.8,27.8,85.2,997.9,326.7,1.0,2.7,207.2,0.48,25.1,25.7
"22/07/12","18:00",0.2,27.5,85.6,998.6,300.8,1.2,2.4,3.1,0.45,24.9,25.4
"22/07/12","19:00",0.0,27.0,87.3,999.1,326.2,1.3,2.9,340.1,0.14,24.7,25.6
"22/07/12","20:00",0.0,25.8,89.5,999.3,333.8,1.7,3.6,334.2,0.00,24.0,25.6
"22/07/12","21:00",0.0,24.8,91.2,1000.3,326.3,1.3,4.0,350.7,0.00,23.3,25.5
"22/07/12","22:00",0.0,24.1,92.1,1000.5,339.0,1.0,2.5,332.6,0.00,22.8,25.4
"22/07/12","23:00",0.0,23.7,92.8,1001.2,313.8,1.0,2.0,321.9,0.00,22.5,25.4
"22/07/12","24:00",0.0,22.9,93.6,1001.5,317.1,1.2,1.9,355.1,0.00,21.9,25.3
"22/07/13","01:00",0.0,22.3,94.2,1001.0,296.0,1.3,2.4,317.4,0.00,21.4,25.2
"22/07/13","02:00",0.0,22.3,94.6,1000.5,326.8,1.6,3.5,350.9,0.00,21.4,25.2
"22/07/13","03:00",0.0,22.3,94.7,1000.5,306.8,0.8,2.9,341.6,0.00,21.4,25.0
"22/07/13","04:00",0.0,22.1,94.8,1000.8,331.9,2.0,4.7,342.5,0.00,21.3,24.7
"22/07/13","05:00",0.0,21.9,94.5,1000.3,322.9,1.8,4.2,344.0,0.00,21.0,24.7
"22/07/13","06:00",0.0,21.5,94.9,1001.5,336.0,1.7,2.5,325.1,0.00,20.7,24.6
"22/07/13","07:00",0.0,22.9,94.2,1000.8,334.1,2.1,3.9,348.4,0.15,22.0,24.4
"22/07/13","08:00",0.0,25.3,90.9,1000.5,229.3,0.6,2.8,342.8,0.61,23.7,24.5
"22/07/13","09:00",0.0,27.6,78.2,999.6,133.2,0.8,2.0,198.8,1.43,23.5,24.4
"22/07/13","10:00",0.0,27.8,75.6,999.6,301.9,1.2,3.5,309.1,1.92,23.1,24.7
"22/07/13","11:00",0.0,27.8,73.8,999.3,321.0,2.2,6.6,338.4,1.64,22.7,24.6
"22/07/13","12:00",0.0,26.8,79.4,999.1,309.6,2.2,5.5,350.5,1.32,23.0,24.7
"22/07/13","13:00",0.0,28.5,74.2,998.9,285.5,1.5,5.8,243.1,1.63,23.5,25.0
"22/07/13","14:00",0.0,30.5,68.3,999.6,284.9,1.7,4.8,216.1,2.38,24.0,25.2
"22/07/13","15:00",0.0,29.0,70.9,998.2,347.6,1.3,5.8,6.9,1.12,23.2,25.3
"22/07/13","16:00",0.0,29.2,68.4,998.2,356.6,2.0,4.4,3.4,1.25,22.8,25.3
"22/07/13","17:00",0.0,26.9,79.1,997.7,286.1,1.8,5.7,335.0,0.48,23.0,25.4
"22/07/13","18:00",0.0,27.3,78.1,997.4,333.4,1.7,5.9,344.2,0.48,23.2,25.4
"22/07/13","19:00",0.0,26.5,77.8,997.7,340.3,1.7,5.0,328.1,0.20,22.3,25.4
"22/07/13","20:00",0.0,25.3,81.2,998.2,342.1,1.5,2.9,347.5,0.00,21.9,25.3
"22/07/13","21:00",0.0,24.5,84.9,998.9,343.5,1.2,1.9,355.4,0.00,21.8,25.2
"22/07/13","22:00",0.0,23.7,88.2,999.1,329.6,1.2,2.0,343.4,0.00,21.7,25.0
"22/07/13","23:00",0.0,23.5,88.7,998.6,277.4,1.1,2.7,339.8,0.00,21.6,24.9
"22/07/13","24:00",0.0,23.3,88.6,998.6,324.0,1.6,2.6,325.9,0.00,21.4,24.8
"22/07/14","01:00",0.0,23.6,88.5,998.4,329.7,2.2,4.3,343.2,0.00,21.6,25.0
"22/07/14","02:00",0.0,23.2,89.0,998.4,328.3,1.7,4.3,337.8,0.00,21.3,24.6
"22/07/14","03:00",0.0,23.0,89.6,998.4,327.2,1.5,3.1,298.3,0.00,21.2,24.7
"22/07/14","04:00",0.0,22.8,90.3,998.2,321.2,1.0,1.7,332.9,0.00,21.2,24.5